| time (UTC) | temp F | wind direction | speed MPH | gust MPH | rain 1hr in | rain 24hr in | rain mn in | humidity % | barometer mb |
| 20260505035505 | 49 | 0 | 0.0 | 3.0 | 0.07 | 0.07 | 0.07 | 83 | 1003.3 |
| 20260505035004 | 49 | 0 | 1.0 | 3.0 | 0.07 | 0.07 | 0.07 | 82 | 1003.4 |
| 20260505033005 | 51 | 0 | 2.0 | 6.0 | 0.04 | 0.04 | 0.04 | 78 | 1003.6 |
| 20260505032504 | 52 | 0 | 1.0 | 5.0 | 0.03 | 0.03 | 0.03 | 77 | 1003.5 |
| 20260505032004 | 52 | 0 | 0.0 | 3.0 | 0.02 | 0.02 | 0.02 | 75 | 1003.4 |
| 20260505031504 | 52 | 0 | 1.0 | 3.0 | 0.01 | 0.01 | 0.01 | 73 | 1003.2 |
| 20260505031005 | 52 | 0 | 2.0 | 8.0 | 0.00 | 0.00 | 0.00 | 70 | 1003.1 |
| 20260505030004 | 53 | 0 | 3.0 | 9.0 | 0.00 | 0.00 | 0.00 | 67 | 1002.8 |
| 20260505025505 | 53 | 0 | 1.0 | 5.0 | 0.00 | 0.00 | 0.00 | 67 | 1002.5 |
| 20260505024504 | 54 | 0 | 2.0 | 5.0 | 0.00 | 0.00 | 0.00 | 66 | 1002.1 |
| 20260505024004 | 54 | 0 | 0.0 | 3.0 | 0.00 | 0.00 | 0.00 | 67 | 1001.9 |
| 20260505023005 | 55 | 0 | 0.0 | 5.0 | 0.00 | 0.00 | 0.00 | 64 | 1001.7 |
| 20260505022504 | 55 | 0 | 3.0 | 8.0 | 0.00 | 0.00 | 0.00 | 63 | 1001.6 |
| 20260505022005 | 55 | 0 | 3.0 | 12.0 | 0.00 | 0.00 | 0.00 | 60 | 1001.5 |
| 20260505021504 | 55 | 0 | 6.0 | 12.0 | 0.00 | 0.00 | 0.00 | 58 | 1001.6 |
| 20260505021004 | 56 | 0 | 0.0 | 0.0 | 0.00 | 0.00 | 0.00 | 55 | 1001.4 |
| 20260505020504 | 56 | 0 | 0.0 | 0.0 | 0.00 | 0.00 | 0.00 | 55 | 1001.3 |
| 20260505020004 | 56 | 0 | 0.0 | 1.0 | 0.00 | 0.00 | 0.00 | 54 | 1001.4 |
| 20260505015504 | 56 | 0 | 0.0 | 1.0 | 0.00 | 0.00 | 0.00 | 54 | 1001.4 |
| 20260505015005 | 56 | 0 | 0.0 | 0.0 | 0.00 | 0.00 | 0.00 | 54 | 1001.4 |
| 20260505014004 | 56 | 0 | 0.0 | 0.0 | 0.00 | 0.00 | 0.00 | 53 | 1000.9 |
| 20260505013504 | 57 | 0 | 0.0 | 0.0 | 0.00 | 0.00 | 0.00 | 54 | 1000.7 |
| 20260505013004 | 57 | 0 | 0.0 | 0.0 | 0.00 | 0.00 | 0.00 | 54 | 1000.9 |
| 20260505012504 | 57 | 0 | 0.0 | 0.0 | 0.00 | 0.00 | 0.00 | 54 | 1001.1 |
| 20260505011504 | 57 | 0 | 0.0 | 0.0 | 0.00 | 0.00 | 0.00 | 53 | 1000.9 |
| 20260505011004 | 58 | 0 | 0.0 | 1.0 | 0.00 | 0.00 | 0.00 | 51 | 1000.8 |
| 20260505010504 | 58 | 0 | 0.0 | 1.0 | 0.00 | 0.00 | 0.00 | 51 | 1001.0 |
| 20260505005504 | 58 | 0 | 0.0 | 1.0 | 0.00 | 0.00 | 0.00 | 51 | 1001.0 |
| 20260505005005 | 59 | 0 | 1.0 | 3.0 | 0.00 | 0.00 | 0.00 | 50 | 1000.9 |
| 20260505004504 | 59 | 0 | 1.0 | 3.0 | 0.00 | 0.00 | 0.00 | 49 | 1001.1 |
| 20260505004004 | 59 | 0 | 1.0 | 3.0 | 0.00 | 0.00 | 0.00 | 47 | 1001.2 |
| 20260505003504 | 59 | 0 | 1.0 | 10.0 | 0.00 | 0.00 | 0.00 | 46 | 1001.2 |
| 20260505003004 | 60 | 0 | 3.0 | 12.0 | 0.00 | 0.00 | 0.00 | 45 | 1001.0 |
| 20260505002004 | 60 | 0 | 3.0 | 9.0 | 0.00 | 0.00 | 0.00 | 44 | 1000.8 |
| 20260505001504 | 60 | 0 | 3.0 | 9.0 | 0.00 | 0.00 | 0.00 | 43 | 1000.7 |
| 20260505001005 | 60 | 0 | 3.0 | 8.0 | 0.00 | 0.00 | 0.00 | 42 | 1000.5 |
| 20260505000504 | 61 | 0 | 2.0 | 6.0 | 0.00 | 0.00 | 0.00 | 42 | 1000.4 |
| 20260505000004 | 61 | 0 | 1.0 | 9.0 | 0.00 | 0.00 | 0.00 | 41 | 1000.2 |
| 20260504235504 | 61 | 0 | 1.0 | 9.0 | 0.00 | 0.00 | 0.00 | 41 | 1000.1 |
| 20260504235004 | 61 | 0 | 2.0 | 8.0 | 0.00 | 0.00 | 0.00 | 41 | 1000.0 |
| 20260504234504 | 62 | 0 | 3.0 | 9.0 | 0.00 | 0.00 | 0.00 | 40 | 999.7 |
| 20260504234004 | 62 | 0 | 2.0 | 8.0 | 0.00 | 0.00 | 0.00 | 39 | 999.6 |
| 20260504233504 | 62 | 0 | 5.0 | 12.0 | 0.00 | 0.00 | 0.00 | 39 | 999.6 |
| 20260504233004 | 62 | 0 | 5.0 | 12.0 | 0.00 | 0.00 | 0.00 | 39 | 999.6 |
| 20260504231504 | 63 | 0 | 6.0 | 12.0 | 0.00 | 0.00 | 0.00 | 38 | 999.4 |
| 20260504231004 | 63 | 0 | 6.0 | 14.0 | 0.00 | 0.00 | 0.00 | 38 | 999.4 |
| 20260504230504 | 63 | 0 | 3.0 | 12.0 | 0.00 | 0.00 | 0.00 | 38 | 999.3 |
| 20260504230005 | 63 | 0 | 7.0 | 13.0 | 0.00 | 0.00 | 0.00 | 38 | 999.3 |
| 20260504225504 | 63 | 0 | 9.0 | 15.0 | 0.00 | 0.00 | 0.00 | 37 | 999.2 |
| 20260504225004 | 63 | 0 | 6.0 | 10.0 | 0.00 | 0.00 | 0.00 | 37 | 999.2 |
| 20260504224504 | 63 | 0 | 6.0 | 12.0 | 0.00 | 0.00 | 0.00 | 38 | 999.2 |
| 20260504224004 | 63 | 0 | 4.0 | 12.0 | 0.00 | 0.00 | 0.00 | 38 | 999.2 |
| 20260504223004 | 63 | 0 | 5.0 | 10.0 | 0.00 | 0.00 | 0.00 | 36 | 999.4 |
| 20260504222504 | 64 | 0 | 2.0 | 10.0 | 0.00 | 0.00 | 0.00 | 35 | 999.3 |
| 20260504222004 | 64 | 0 | 3.0 | 9.0 | 0.00 | 0.00 | 0.00 | 34 | 999.4 |
| 20260504221503 | 64 | 0 | 6.0 | 12.0 | 0.00 | 0.00 | 0.00 | 33 | 999.2 |
| 20260504221004 | 65 | 0 | 4.0 | 12.0 | 0.00 | 0.00 | 0.00 | 33 | 999.2 |
| 20260504220504 | 65 | 0 | 5.0 | 12.0 | 0.00 | 0.00 | 0.00 | 33 | 999.1 |
| 20260504220004 | 66 | 0 | 6.0 | 14.0 | 0.00 | 0.00 | 0.00 | 32 | 998.9 |
| 20260504215503 | 67 | 0 | 4.0 | 15.0 | 0.00 | 0.00 | 0.00 | 31 | 998.7 |
| 20260504215004 | 68 | 0 | 5.0 | 14.0 | 0.00 | 0.00 | 0.00 | 30 | 998.5 |
| 20260504214504 | 69 | 0 | 8.0 | 18.0 | 0.00 | 0.00 | 0.00 | 29 | 998.3 |
| 20260504214004 | 70 | 0 | 6.0 | 20.0 | 0.00 | 0.00 | 0.00 | 27 | 998.2 |
| 20260504213504 | 71 | 0 | 2.0 | 8.0 | 0.00 | 0.00 | 0.00 | 25 | 997.8 |
| 20260504212504 | 70 | 0 | 3.0 | 5.0 | 0.00 | 0.00 | 0.00 | 26 | 997.9 |
| 20260504212004 | 70 | 0 | 2.0 | 8.0 | 0.00 | 0.00 | 0.00 | 27 | 998.0 |
| 20260504211004 | 69 | 0 | 2.0 | 9.0 | 0.00 | 0.00 | 0.00 | 28 | 998.2 |
| 20260504210004 | 68 | 0 | 2.0 | 10.0 | 0.00 | 0.00 | 0.00 | 27 | 998.3 |
| 20260504205504 | 67 | 0 | 4.0 | 10.0 | 0.00 | 0.00 | 0.00 | 27 | 998.4 |
| 20260504205004 | 67 | 0 | 2.0 | 9.0 | 0.00 | 0.00 | 0.00 | 30 | 998.4 |
| 20260504204504 | 66 | 0 | 5.0 | 9.0 | 0.00 | 0.00 | 0.00 | 31 | 998.5 |
| 20260504204004 | 65 | 0 | 5.0 | 14.0 | 0.00 | 0.00 | 0.00 | 30 | 998.7 |
| 20260504203004 | 65 | 0 | 3.0 | 12.0 | 0.00 | 0.00 | 0.00 | 31 | 998.9 |
| 20260504202504 | 64 | 0 | 5.0 | 13.0 | 0.00 | 0.00 | 0.00 | 30 | 998.9 |
| 20260504202004 | 64 | 0 | 1.0 | 10.0 | 0.00 | 0.00 | 0.00 | 32 | 999.0 |
| 20260504201504 | 63 | 0 | 3.0 | 10.0 | 0.00 | 0.00 | 0.00 | 33 | 998.9 |
| 20260504201004 | 63 | 0 | 5.0 | 15.0 | 0.00 | 0.00 | 0.00 | 33 | 998.8 |
| 20260504200504 | 63 | 0 | 5.0 | 15.0 | 0.00 | 0.00 | 0.00 | 34 | 998.8 |
| 20260504200004 | 63 | 0 | 4.0 | 10.0 | 0.00 | 0.00 | 0.00 | 38 | 999.0 |
| 20260504195504 | 63 | 0 | 5.0 | 10.0 | 0.00 | 0.00 | 0.00 | 35 | 999.1 |
| 20260504195004 | 63 | 0 | 5.0 | 15.0 | 0.00 | 0.00 | 0.00 | 39 | 999.4 |
| 20260504194504 | 63 | 0 | 2.0 | 9.0 | 0.00 | 0.00 | 0.00 | 33 | 999.6 |
| 20260504194004 | 64 | 0 | 2.0 | 3.0 | 0.00 | 0.00 | 0.00 | 38 | 999.9 |
| 20260504193504 | 64 | 0 | 1.0 | 3.0 | 0.00 | 0.00 | 0.00 | 34 | 1000.0 |
| 20260504193004 | 64 | 0 | 2.0 | 12.0 | 0.00 | 0.00 | 0.00 | 32 | 1000.0 |
| 20260504192503 | 64 | 0 | 1.0 | 6.0 | 0.00 | 0.00 | 0.00 | 31 | 999.9 |
| 20260504191505 | 65 | 0 | 3.0 | 10.0 | 0.00 | 0.00 | 0.00 | 29 | 999.3 |
| 20260504190004 | 68 | 295 | 5.0 | 17.0 | 0.00 | 0.00 | 0.00 | 27 | 998.8 |
| 20260504185504 | 70 | 0 | 10.0 | 20.0 | 0.00 | 0.00 | 0.00 | 26 | 998.5 |
| 20260504184504 | 71 | 4 | 1.0 | 9.0 | 0.00 | 0.00 | 0.00 | 23 | 998.1 |
| 20260504184005 | 72 | 354 | 3.0 | 10.0 | 0.00 | 0.00 | 0.00 | 22 | 998.0 |
| 20260504183504 | 72 | 4 | 3.0 | 9.0 | 0.00 | 0.00 | 0.00 | 22 | 998.1 |
| 20260504183004 | 73 | 18 | 5.0 | 10.0 | 0.00 | 0.00 | 0.00 | 22 | 998.1 |
| 20260504182503 | 73 | 24 | 4.0 | 13.0 | 0.00 | 0.00 | 0.00 | 23 | 998.1 |
| 20260504182004 | 73 | 45 | 3.0 | 10.0 | 0.00 | 0.00 | 0.00 | 22 | 998.2 |
| 20260504181503 | 73 | 356 | 7.0 | 14.0 | 0.00 | 0.00 | 0.00 | 22 | 998.1 |
| 20260504181004 | 73 | 3 | 3.0 | 12.0 | 0.00 | 0.00 | 0.00 | 23 | 998.2 |
| 20260504180503 | 74 | 336 | 7.0 | 16.0 | 0.00 | 0.00 | 0.00 | 23 | 998.4 |
| 20260504180004 | 74 | 351 | 5.0 | 12.0 | 0.00 | 0.00 | 0.00 | 21 | 998.5 |
| 20260504175504 | 74 | 0 | 3.0 | 12.0 | 0.00 | 0.00 | 0.00 | 22 | 998.4 |
| 20260504175004 | 74 | 0 | 6.0 | 12.0 | 0.00 | 0.00 | 0.00 | 23 | 998.5 |
| 20260504174504 | 74 | 0 | 2.0 | 5.0 | 0.00 | 0.00 | 0.00 | 24 | 998.6 |
| 20260504174004 | 74 | 0 | 0.0 | 3.0 | 0.00 | 0.00 | 0.00 | 23 | 998.8 |
| 20260504173503 | 74 | 0 | 1.0 | 3.0 | 0.00 | 0.00 | 0.00 | 26 | 999.0 |
| 20260504173004 | 73 | 0 | 3.0 | 6.0 | 0.00 | 0.00 | 0.00 | 23 | 999.2 |
| 20260504172503 | 73 | 0 | 1.0 | 6.0 | 0.00 | 0.00 | 0.00 | 24 | 999.2 |
| 20260504172004 | 72 | 0 | 1.0 | 3.0 | 0.00 | 0.00 | 0.00 | 24 | 999.2 |
| 20260504171503 | 72 | 0 | 3.0 | 8.0 | 0.00 | 0.00 | 0.00 | 25 | 999.2 |
| 20260504171004 | 72 | 0 | 3.0 | 5.0 | 0.00 | 0.00 | 0.00 | 25 | 999.3 |
| 20260504170505 | 72 | 0 | 3.0 | 8.0 | 0.00 | 0.00 | 0.00 | 25 | 999.3 |
| 20260504151004 | 54 | 0 | 0.0 | 0.0 | 0.00 | 0.00 | 0.00 | 44 | 1000.7 |
| 20260504141003 | 47 | 0 | 0.0 | 0.0 | 0.00 | 0.00 | 0.00 | 57 | 1000.9 |
| 20260504130504 | 43 | 0 | 0.0 | 0.0 | 0.00 | 0.00 | 0.00 | 62 | 1000.9 |
| 20260504110504 | 43 | 0 | 0.0 | 0.0 | 0.00 | 0.00 | 0.00 | 57 | 1000.7 |
| 20260504100504 | 44 | 0 | 0.0 | 0.0 | 0.00 | 0.00 | 0.00 | 55 | 1001.1 |
| 20260504082005 | 50 | 0 | 0.0 | 0.0 | 0.00 | 0.00 | 0.00 | 44 | 1001.7 |
| 20260504081504 | 51 | 0 | 0.0 | 0.0 | 0.00 | 0.00 | 0.00 | 43 | 1001.8 |
| 20260504081005 | 51 | 0 | 0.0 | 0.0 | 0.00 | 0.00 | 0.00 | 43 | 1001.9 |
| 20260504080504 | 52 | 0 | 0.0 | 0.0 | 0.00 | 0.00 | 0.00 | 43 | 1001.9 |
| 20260504050504 | 60 | 0 | 0.0 | 3.0 | 0.00 | 0.00 | 0.00 | 31 | 1002.0 |
| 20260504050004 | 60 | 0 | 1.0 | 3.0 | 0.00 | 0.00 | 0.00 | 32 | 1002.0 |
| 20260504045504 | 60 | 0 | 1.0 | 2.0 | 0.00 | 0.00 | 0.00 | 32 | 1002.0 |
| 20260504045005 | 61 | 0 | 1.0 | 3.0 | 0.00 | 0.00 | 0.00 | 32 | 1002.1 |
| 20260504044504 | 61 | 0 | 0.0 | 1.0 | 0.00 | 0.00 | 0.00 | 34 | 1002.1 |
| 20260504044005 | 61 | 0 | 0.0 | 2.0 | 0.00 | 0.00 | 0.00 | 34 | 1002.2 |
| 20260504043505 | 61 | 0 | 1.0 | 6.0 | 0.00 | 0.00 | 0.00 | 33 | 1002.2 |
| 20260504043005 | 61 | 0 | 0.0 | 1.0 | 0.00 | 0.00 | 0.00 | 33 | 1002.2 |
| 20260504042505 | 61 | 0 | 1.0 | 3.0 | 0.00 | 0.00 | 0.00 | 33 | 1002.3 |
| 20260504042004 | 61 | 0 | 2.0 | 3.0 | 0.00 | 0.00 | 0.00 | 32 | 1002.3 |
| 20260504041504 | 61 | 0 | 2.0 | 6.0 | 0.00 | 0.00 | 0.00 | 32 | 1002.3 |
| 20260504041004 | 61 | 0 | 3.0 | 8.0 | 0.00 | 0.00 | 0.00 | 32 | 1002.4 |
| 20260504040504 | 61 | 0 | 4.0 | 9.0 | 0.00 | 0.00 | 0.00 | 32 | 1002.4 |
| 20260504040004 | 61 | 0 | 3.0 | 10.0 | 0.00 | 0.00 | 0.00 | 33 | 1002.4 |